Andover, NJ

7:17 AM EDT on September 25, 2016 (GMT -0400)
Andover

Weather History for K12N - December, 2013

Change the Weather History Date:

Thursday, December 12, 2013

  Actual Average (KFWN) Record (KFWN)
Temperature  
Mean Temperature 20 °F -  
Max Temperature 25 °F 39 °F 60 °F (1979)
Min Temperature 16 °F 21 °F -3 °F (1958)
Degree Days  
Heating Degree Days 44    
Moisture  
Dew Point 6 °F    
Average Humidity 59    
Maximum Humidity 88    
Minimum Humidity 42    
Precipitation  
Precipitation 0.00 in - - ()
Sea Level Pressure  
Sea Level Pressure 30.30 in    
Wind  
Wind Speed 2 mph (West)    
Max Wind Speed 8 mph    
Max Gust Speed 17 mph    
Averages and records for this station are not official NWS values.
T = Trace of Precipitation, MM = Missing Value Source: NWS Daily Summary

Daily Weather History Graph

Daily Weather History Graph

Search for Another Location

Airport or City:

Trip Planner

Search our weather history database for the weather conditions in past years. The results will help you decide how hot, cold, wet, or windy it might be!

Date:

Astronomy

Dec. 12, 2013 Rise Set
Actual Time 7:14 AM EST 4:30 PM EST
Civil Twilight 6:43 AM EST 5:01 PM EST
Nautical Twilight 6:09 AM EST 5:36 PM EST
Astronomical Twilight 5:35 AM EST 6:09 PM EST
Moon 1:38 PM EST (12/12) 2:33 AM EST (12/12)
Length of Visible Light 10h 18m
Length of Day
9h 16m
Waxing Gibbous, 80% of the Moon is Illuminated
Dec 12
Waxing Gibbous
Dec 17
Full
Dec 25
Last Quarter
Jan 1
New
Jan 7
First Quarter

Hourly Weather History & Observations

Time (EST) Temp. Windchill Dew Point Humidity Pressure Visibility Wind Dir Wind Speed Gust Speed Precip Events Conditions
12:54 AM 17.1 °F - 14.0 °F 88% 30.26 in - Calm Calm - N/A   Unknown
1:54 AM 16.0 °F - 12.9 °F 88% 30.28 in - Calm Calm - N/A   Unknown
2:54 AM 16.0 °F - 12.9 °F 88% 30.30 in - Calm Calm - N/A   Unknown
3:54 AM 17.1 °F - 12.9 °F 84% 30.32 in - Calm Calm - N/A   Unknown
4:54 AM 18.0 °F - 9.0 °F 68% 30.32 in - Calm Calm - N/A   Unknown
5:54 AM 18.0 °F 12.7 °F 6.1 °F 60% 30.34 in - North 3.5 mph - N/A   Unknown
6:54 AM 17.1 °F - 7.0 °F 65% 30.36 in - Calm Calm - N/A   Unknown
7:54 AM 16.0 °F - 7.0 °F 68% 30.38 in - Calm Calm - N/A   Unknown
8:54 AM 19.9 °F - 3.9 °F 50% 30.39 in - Calm Calm - N/A   Unknown
9:54 AM 21.0 °F 12.4 °F 3.9 °F 48% 30.39 in - Variable 6.9 mph 17.3 mph N/A   Unknown
10:54 AM 21.9 °F 12.5 °F 3.9 °F 46% 30.38 in - North 8.1 mph - N/A   Unknown
11:54 AM 23.0 °F 15.8 °F 5.0 °F 46% 30.33 in - Variable 5.8 mph - N/A   Unknown
12:54 PM 24.1 °F 15.2 °F 3.9 °F 42% 30.30 in - WNW 8.1 mph - N/A   Unknown
1:54 PM 24.1 °F 18.2 °F 3.9 °F 42% 30.27 in - WNW 4.6 mph - N/A   Unknown
2:54 PM 25.0 °F 19.3 °F 5.0 °F 43% 30.27 in - Variable 4.6 mph - N/A   Unknown
3:54 PM 23.0 °F 13.9 °F 5.0 °F 46% 30.27 in - SW 8.1 mph - N/A   Unknown
4:54 PM 21.0 °F 16.2 °F 3.9 °F 48% 30.26 in - Variable 3.5 mph - N/A   Unknown
5:54 PM 19.9 °F - 7.0 °F 57% 30.27 in - Calm Calm - N/A   Unknown
6:54 PM 19.9 °F 14.9 °F 3.9 °F 50% 30.28 in - Variable 3.5 mph - N/A   Unknown
7:54 PM 18.0 °F - 3.9 °F 54% 30.27 in - Calm Calm - N/A   Unknown
8:54 PM 17.1 °F 8.7 °F 5.0 °F 59% 30.24 in - Variable 5.8 mph - N/A   Unknown
9:54 PM 17.1 °F 8.7 °F 5.0 °F 59% 30.22 in - SSW 5.8 mph - N/A   Unknown
10:54 PM 19.0 °F 11.1 °F 3.9 °F 52% 30.20 in - SSW 5.8 mph - N/A   Unknown
11:54 PM 18.0 °F 11.1 °F 3.9 °F 54% 30.19 in - SSW 4.6 mph - N/A   Unknown